Location: Felsheim
(48.7267°N, 10.7386°E)
Time: 21:31:47
(UTC+00:00)

Cosmos 676 Rocket - Pass Details

Date: 09 April 2020
Orbit: 755 x 783 km, 74.0° (Epoch: 26 May)

Event Time Altitude Azimuth Distance (km) Brightness Sun altitude
Rises 19:06:46 0° 186° (S) 3,242 7.0 -11.1°
Reaches altitude 10° 19:09:12 10° 181° (S) 2,315 6.2 -11.5°
Maximum altitude 19:14:16 52° 106° (ESE) 959 4.1 -12.2°
Drops below altitude 10° 19:19:21 10° 32° (NNE) 2,313 6.5 -13.0°
Sets 19:21:46 0° 27° (NNE) 3,239 7.3 -13.3°
